Shoreham, United Kingdom

3:01 AM GMT on February 12, 2016 (GMT +0000)
Shoreham

Weather History for EGKA - July, 2013

Change the Weather History Date:

Thursday, July 4, 2013

  Actual Average Record
Temperature  
Mean Temperature 55 °F -  
Max Temperature 64 °F 66 °F 78 °F (2006)
Min Temperature 46 °F 58 °F 46 °F (2013)
Degree Days  
Heating Degree Days 10    
Growing Degree Days 5 (Base 50)    
Moisture  
Dew Point 57 °F    
Average Humidity 90    
Maximum Humidity 100    
Minimum Humidity 80    
Precipitation  
Precipitation 0.00 in - - ()
Sea Level Pressure  
Sea Level Pressure 30.14 in    
Wind  
Wind Speed 11 mph ()    
Max Wind Speed 18 mph    
Max Gust Speed -    
Visibility 4.9 miles    
Events Fog    
Averages and records for this station are not official NWS values.
T = Trace of Precipitation, MM = Missing Value Source: Averaged Metar Reports

Daily Weather History Graph

Daily Weather History Graph

Search for Another Location

Airport or City:

Trip Planner

Search our weather history database for the weather conditions in past years. The results will help you decide how hot, cold, wet, or windy it might be!

Date:

Astronomy

Jul. 04, 2013 Rise Set
Actual Time 4:54 AM BST 9:16 PM BST
Civil Twilight 4:08 AM BST 10:01 PM BST
Nautical Twilight 3:01 AM BST 11:08 PM BST
Astronomical Twilight 1:37 AM BST 12:33 AM BST
Moon 2:12 AM BST (7/4) 5:59 PM BST (7/4)
Length of Visible Light 17h 53m
Length of Day
16h 22m
Waning Crescent, 13% of the Moon is Illuminated
Jul 4
Waning Crescent
Jul 8
New
Jul 16
First Quarter
Jul 22
Full
Jul 29
Last Quarter

Hourly Weather History & Observations

Time (BST) Temp. Dew Point Humidity Pressure Visibility Wind Dir Wind Speed Gust Speed Precip Events Conditions
12:50 AM 53 °F 52 °F 94% 30.05 in - WNW 4.6 mph - -  
3:50 AM 47 °F 46 °F 95% 30.07 in - North 1.2 mph - -  
6:50 AM 58 °F 58 °F 98% 30.09 in - WSW 12.7 mph - -  
7:50 AM 59.0 °F 57.2 °F 94% 30.09 in 3.1 mi WSW 13.8 mph - N/A   Haze
8:20 AM 59.0 °F 57.2 °F 94% 30.09 in 2.5 mi WSW 13.8 mph - N/A   Haze
8:50 AM 59.0 °F 57.2 °F 94% 30.09 in 3.1 mi SW 13.8 mph - N/A   Haze
9:20 AM 59.0 °F 57.2 °F 94% 30.09 in 1.6 mi WSW 15.0 mph - N/A   Haze
9:50 AM 59 °F 58 °F 94% 30.13 in - WSW 12.7 mph - -  
9:50 AM 59.0 °F 59.0 °F 100% 30.12 in 3.7 mi WSW 12.7 mph - N/A   Mostly Cloudy
10:50 AM 60.8 °F 59.0 °F 94% 30.12 in 5.0 mi WSW 11.5 mph - N/A   Mostly Cloudy
11:20 AM 64.4 °F 59.0 °F 83% 30.12 in 6.2 mi WSW 12.7 mph - N/A   Mostly Cloudy
12:20 PM 62.6 °F 59.0 °F 88% 30.15 in 6.2 mi WSW 13.8 mph - N/A   Mostly Cloudy
12:50 PM 63 °F 59 °F 81% 30.16 in - SW 15.0 mph - -  
12:50 PM 62.6 °F 59.0 °F 88% 30.15 in 6.2 mi SW 13.8 mph - N/A   Mostly Cloudy
1:20 PM 62.6 °F 59.0 °F 88% 30.15 in 6.2 mi SW 16.1 mph - N/A   Mostly Cloudy
1:50 PM 60.8 °F 57.2 °F 88% 30.15 in 6.2 mi SW 18.4 mph - N/A   Mostly Cloudy
2:20 PM 62.6 °F 57.2 °F 82% 30.15 in 5.6 mi SW 17.3 mph - N/A   Mostly Cloudy
2:50 PM 62.6 °F 57.2 °F 82% 30.18 in 5.6 mi WSW 17.3 mph - N/A   Mostly Cloudy
3:20 PM 62.6 °F 59.0 °F 88% 30.18 in 6.2 mi SW 17.3 mph - N/A   Mostly Cloudy
3:50 PM 63 °F 58 °F 80% 30.18 in - SW 18.4 mph - -  
5:20 PM 60.8 °F 57.2 °F 88% 30.18 in 5.6 mi SW 16.1 mph - N/A   Mostly Cloudy
5:50 PM 60.8 °F 59.0 °F 94% 30.18 in 5.0 mi WSW 13.8 mph - N/A Fog Fog
6:20 PM 60.8 °F 57.2 °F 88% 30.18 in 5.0 mi WSW 16.1 mph - N/A Fog Fog
6:50 PM 61 °F 58 °F 88% 30.21 in - WSW 13.8 mph - -  
9:50 PM 59 °F 57 °F 92% 30.25 in - WSW 10.4 mph - -